Regional Weather Roundup
Issued by NWS Northern Indiana

Home | Current Version | Previous Version | Graphics & Text | Print | Product List | Glossary On
Versions: 1 2 3 4 5 6 7 8 9 10 11 12 13 14 15 16 17 18 19 20 21 22 23 24 25 26 27 28 29 30 31 32 33 34 35 36 37 38 39 40 41 42 43 44 45 46 47 48 49 50
000
ASUS43 KIWX 291410
RWRIWX

KIWX WEATHER ROUNDUP
NATIONAL WEATHER SERVICE NORTHERN INDIANA
1000 AM EDT FRI AUG 29 2014

NOTE: "FAIR" INDICATES FEW OR NO CLOUDS BELOW 12,000 FEET WITH NO
SIGNIFICANT WEATHER AND/OR OBSTRUCTIONS TO VISIBILITY.

* THESE STATIONS ARE NOT UNDER NWS QUALITY CONTROL. THEY ALSO MAY NOT
  REPORT WEATHER SUCH AS PRECIPITATION OR FOG.

INZ001>027-291500-
NORTHERN INDIANA

CITY           SKY/WX    TMP DP  RH WIND       PRES   REMARKS
GARY*          CLOUDY    73  66  78 SE14      30.01S
VALPARAISO     PTSUNNY   69  64  84 SE8       30.03F
MICHIGAN CITY* CLOUDY    70  61  73 SE7       30.03F
LAPORTE*       RAIN      68  63  84 E6        30.05S
KNOX*          CLOUDY    69  62  77 SE8       30.04S
SOUTH BEND     CLOUDY    70  60  70 SE10      30.06F
ELKHART*       CLOUDY    66  59  77 SE8       30.07F
GOSHEN         CLOUDY    66  61  84 SE9       30.07F
MONTICELLO*    PTSUNNY   70  65  86 CALM      30.03S
LOGANSPORT*    PTSUNNY   72  63  73 SE10      30.06S
ROCHESTER*     CLOUDY    72  63  73 SE7       30.07R
WARSAW*        PTSUNNY   68  61  77 SE5       30.08S
ANGOLA*        CLOUDY    64  55  72 SE6       30.11S
FORT WAYNE     MOSUNNY   68  60  75 SE9       30.10S
HUNTINGTON*    SUNNY     69  62  79 S7        30.09R
PERU/GRISSOM   PTSUNNY   72  67  86 S12       30.06S
MARION*        MOSUNNY   71  61  69 S8        30.08S

$$
INZ028>050-291500-
CENTRAL INDIANA

CITY           SKY/WX    TMP DP  RH WIND       PRES   REMARKS
LAFAYETTE      MOSUNNY   73  66  78 S5        30.03S
KOKOMO*        MOSUNNY   70  63  78 S14       30.07S
MUNCIE*        MOSUNNY   72  60  66 S9        30.08S
INDIANAPOLIS   CLOUDY    70  63  78 SE6       30.05S

$$
MIZ043>046-050>051-056>058-064>065-071>073-077>080-291500-
SOUTHWEST LOWER MICHIGAN

CITY           SKY/WX    TMP DP  RH WIND       PRES   REMARKS
BATTLE CREEK   CLOUDY    65  54  67 SE8       30.09F
BENTON HARBOR  CLOUDY    67  60  78 SE10      30.04S
COLDWATER*     CLOUDY    64  58  81 SE7       30.10F
HILLSDALE*     CLOUDY    64  55  72 S6        30.12S
HOLLAND        RAIN      65  60  84 SE10      30.05S
GRAND RAPIDS   CLOUDY    65  56  72 SE9       30.07F
KALAMAZOO      LGT RAIN  65  56  72 S9        30.08F
STURGIS*         N/A     64  57  77 SE10      30.08F
THREE RIVERS*  PTSUNNY   66  58  74 SE6       30.08F

$$
OHZ001>008-015>018-024>025-291500-
NORTHWEST OHIO

CITY           SKY/WX    TMP DP  RH WIND       PRES   REMARKS
WAUSEON*       FAIR      64  55  72 SE8       30.13F
DEFIANCE       PTSUNNY   66  55  67 E6        30.12F
FINDLAY        PTSUNNY   67  56  67 SE8       30.12F
TOLEDO EXPRESS PTSUNNY   64  54  69 SE5       30.13F
TOLEDO METCALF MOSUNNY   66  54  65 SE7       30.15S
LIMA           MOSUNNY   69  58  67 SE8       30.12S

$$
&&


USA.gov is the U.S. government's official web portal to all federal, state and local government web resources and services.